2006 RP118

Japanese version
Home page
Total 6,336 html files since Dec. 4, 1995
Updated on February 4, 2008

---------------------------------------------------------------------

* Profile

Discovery Date September 14, 2006
Magnitude
Discoverer

* Orbital Elements

The following orbital elements are taken from MPEC 2008-B50:

Epoch 2006 Sept. 2.0 TT = JDT 2453980.5                 MPC
M 322.34837              (2000.0)            P               Q
n   0.11045802     Peri.   94.90679     -0.46442844     -0.88556707
a   4.3020080      Node    22.77288     +0.80327191     -0.42540505
e   0.5946382      Incl.    1.30052     +0.37290812     -0.18655161
P   8.92           H   17.4           G   0.15
From 52 observations 2006 Sept. 14-22.

* Magnitudes Graph

        H = 17.4  G = 0.15

---------------------------------------------------------------------

The orbital elements are published at the MPC Ephemerides and Orbital Elements.
The magnitudes graphs are made with Comet for Windows.

---------------------------------------------------------------------

Copyright(C) 1995-2008 Seiichi Yoshida (comet@aerith.net). All rights reserved.